COSMOS 2513

Last updated on Mon Jun 22 2026 00:03:05 GMT+0000 (Coordinated Universal Time)

1 41121U 15075A 26172.70878036 -.00000137 00000+0 00000+0 0 9994 2 41121 0.0745 100.2517 0003016 340.6809 164.3715 1.00266022 38594
UTC large
Height (km)
Speed (km/s)
/
Latitude / Longitude
Inclination (degrees)
Orbital Period (minutes)
Azimuth
Elevation
Range (km)
Doppler Factor

Next 0 passes for location: London (51.5072 / 0.1276)

No passes found over London.
COSMOS 2513